Погода в Уйгурсае

Узбекистан     40°55′33″N   71°03′11″E
темп.,
°C
ветер,
м/с
пор.,
м/с
влажн.,
%
обл.,
%
осадки,
мм/ч
давл.,
гПа
погр.,
м
27 февраля, сб
сб2723:00−5ссз123678 0.0 103252
02:00−5ссз1133100 0.0 103047
05:00−5ссз0035100 0.0 103053
08:00−4в1132100 0.0 1030171
11:00−3юв1132100 0.1 1030549
14:00−1ююв3234100 0.1 1030834
17:00−1в223699 0.1 1032864
20:00−3с344887 0.0 1035110
28 февраля, вс
вс2823:00−4с334455 0.0 103494
02:00−4ссз22420 0.0 103223
05:00−4ссз22400 0.0 103123
08:00−2с12350 0.0 102948
11:00+1юв22380 0.0 1025328
14:00+3вюв12390 0.0 1022479
17:00+4в11400 0.0 1022364
20:00+2ссв22490 0.0 102422
1 марта, пн
пн123:00+1ссв22440 0.0 102422
02:000с014667 0.0 102322
05:00−1зюз014783 0.0 102222
08:00+1всв1142100 0.0 102322
11:00+5вюв114292 0.0 1021261
14:00+7в123516 0.0 1020494
17:00+8всв12328 0.0 1020400
20:00+5с12420 0.0 102322
2 марта, вт
вт223:00+4ссв12360 0.0 102422
02:00+2ссв123733 0.0 102422
05:00+2св114267 0.0 102322
08:00+4св1139100 0.0 102422
11:00+7всв1136100 0.0 1022278
14:00+9всв1234100 0.0 1021550
17:00+9в0134100 0.0 1021328
20:00+7с1145100 0.0 102222
3 марта, ср
ср323:00+7ссв2247100 0.0 102223
02:00+6с1160100 0.1 102126
05:00+5с0160100 0.2 102126
08:00+6зсз2271100 0.3 1021134
11:00+7ююз2357100 0.4 1020740
14:00+9ю3349100 0.0 10181158
17:00+9юз3354100 0.1 1019928
20:00+7ссв1270100 0.4 1020103